N2YJJ-2 Weather Reports


Display with metric or nautical units.
time (UTC)temp
F
wind
direction
speed
MPH
gust
MPH
rain 1hr
in
rain 24hr
in
rain mn
in
humidity
%
barometer
mb
20260509060006 40 167 0.0 0.0 0.00 0.04 0.00 90 1014.9
20260509055006 40 167 0.0 0.0 0.00 0.04 0.00 89 1014.9
20260509054007 40 167 0.0 0.0 0.00 0.04 0.00 88 1015.0
20260509053006 40 167 0.0 0.0 0.00 0.04 0.00 87 1015.1
20260509052007 40 167 0.0 0.0 0.00 0.04 0.00 88 1015.2
20260509051006 40 167 0.0 0.0 0.00 0.04 0.00 87 1015.4
20260509050007 40 167 0.0 0.0 0.00 0.04 0.00 87 1015.4
20260509045006 40 167 0.0 0.0 0.00 0.04 0.00 87 1015.6
20260509044015 40 167 0.0 0.0 0.00 0.04 0.00 88 1015.5
20260509043007 40 167 0.0 0.0 0.00 0.04 0.00 87 1015.6
20260509042007 41 167 0.0 0.0 0.00 0.04 0.00 87 1015.6
20260509041007 41 167 0.0 0.0 0.00 0.04 0.00 86 1015.8
20260509040007 41 167 0.0 0.0 0.00 0.04 0.00 86 1015.8
20260509035010 41 167 0.0 0.0 0.00 0.04 0.04 86 1016.0
20260509034010 42 167 0.0 0.0 0.00 0.04 0.04 86 1016.1
20260509032002 42 167 0.0 0.0 0.00 0.04 0.04 85 1016.1
20260509031003 43 167 0.0 0.0 0.00 0.04 0.04 84 1016.2
20260509030003 43 167 0.0 0.0 0.00 0.04 0.04 84 1016.2
20260509024004 44 167 0.0 0.0 0.00 0.04 0.04 81 1016.3
20260509022003 44 167 0.0 0.0 0.00 0.05 0.04 78 1016.1
20260509021004 45 167 0.0 0.0 0.00 0.05 0.04 77 1016.0
20260509020003 45 167 0.0 0.0 0.00 0.06 0.04 76 1016.0
20260509015003 46 167 0.0 0.0 0.00 0.06 0.04 75 1016.0
20260509014004 47 167 0.0 0.0 0.00 0.06 0.04 73 1016.0
20260509013003 47 167 0.0 0.0 0.00 0.06 0.04 72 1016.1
20260509011003 49 167 0.0 0.0 0.00 0.06 0.04 68 1016.0
20260509010004 50 167 0.0 0.0 0.00 0.06 0.04 68 1015.9
20260509005003 51 167 0.0 0.0 0.00 0.06 0.04 69 1015.8
20260509004004 51 167 0.0 0.0 0.00 0.06 0.04 66 1015.7
20260509003003 52 167 0.0 0.0 0.00 0.07 0.04 66 1015.6
20260509001004 54 167 0.0 2.0 0.00 0.07 0.04 62 1015.5
20260509000002 55 158 0.0 5.0 0.00 0.07 0.04 59 1015.5
20260508233002 56 243 1.0 3.0 0.00 0.07 0.04 51 1015.5
20260508232002 56 248 2.0 6.0 0.00 0.07 0.04 52 1015.3
20260508231003 56 221 1.0 3.0 0.00 0.07 0.04 49 1015.3
20260508230003 57 248 1.0 3.0 0.00 0.07 0.04 51 1015.3
20260508223002 58 21 1.0 3.0 0.00 0.07 0.04 54 1015.4
20260508222002 58 262 1.0 3.0 0.00 0.07 0.04 50 1015.5
20260508221002 58 244 1.0 3.0 0.00 0.07 0.04 50 1015.4
20260508220002 58 238 2.0 5.0 0.00 0.07 0.04 52 1015.5
20260508215002 58 243 1.0 6.0 0.00 0.07 0.04 47 1015.5
20260508214003 59 256 2.0 5.0 0.00 0.07 0.04 48 1015.6
20260508212002 59 91 1.0 3.0 0.00 0.07 0.04 50 1015.5
20260508211003 59 95 1.0 5.0 0.00 0.07 0.04 51 1015.6
20260508210002 60 224 2.0 3.0 0.00 0.07 0.04 50 1015.6
20260508205003 58 328 1.0 3.0 0.00 0.07 0.04 52 1015.7
20260508204003 58 285 1.0 5.0 0.00 0.07 0.04 46 1015.8
20260508203002 58 192 1.0 7.0 0.00 0.07 0.04 47 1015.9
20260508201003 60 317 2.0 6.0 0.00 0.07 0.04 44 1016.0
20260508200003 60 196 2.0 5.0 0.00 0.07 0.04 43 1016.1
20260508195002 59 158 2.0 3.0 0.00 0.07 0.04 48 1016.3
20260508194002 59 280 2.0 6.0 0.00 0.07 0.04 48 1016.4
20260508193003 59 228 2.0 9.0 0.00 0.07 0.04 54 1016.5
20260508192003 60 145 4.0 8.0 0.00 0.07 0.04 42 1016.6
20260508191002 60 323 2.0 5.0 0.00 0.07 0.04 44 1016.7
20260508190002 60 343 1.0 5.0 0.00 0.07 0.04 45 1017.0
20260508185003 59 325 2.0 6.0 0.00 0.07 0.04 46 1017.0
20260508184003 59 305 2.0 6.0 0.00 0.07 0.04 50 1017.1
20260508183003 59 271 2.0 5.0 0.00 0.07 0.04 54 1017.0
20260508180002 58 306 1.0 6.0 0.00 0.07 0.04 58 1017.1
20260508175003 59 297 1.0 3.0 0.00 0.07 0.04 58 1017.2
20260508174003 58 303 2.0 6.0 0.00 0.07 0.04 59 1017.2
20260508173003 57 340 2.0 5.0 0.00 0.07 0.04 53 1017.4
20260508172004 57 238 2.0 5.0 0.00 0.07 0.04 54 1017.3
20260508171003 56 301 1.0 7.0 0.00 0.07 0.04 64 1017.4
20260508170004 56 246 2.0 5.0 0.00 0.07 0.04 62 1017.5
20260508165003 55 308 2.0 7.0 0.00 0.07 0.04 64 1017.6
20260508164003 55 218 2.0 6.0 0.00 0.07 0.04 63 1017.7
20260508163004 55 286 2.0 7.0 0.00 0.07 0.04 65 1017.8
20260508161003 54 126 2.0 5.0 0.00 0.07 0.04 69 1018.1
20260508160003 53 272 2.0 5.0 0.00 0.07 0.04 75 1018.2
20260508155003 52 213 3.0 8.0 0.00 0.07 0.04 72 1018.3
20260508154003 52 224 3.0 6.0 0.00 0.07 0.04 76 1018.4
20260508153004 52 131 2.0 5.0 0.00 0.07 0.04 77 1018.3
20260508152003 51 235 2.0 3.0 0.00 0.07 0.04 75 1018.5
20260508151003 50 212 2.0 8.0 0.00 0.07 0.04 79 1018.3
20260508150004 49 210 2.0 5.0 0.00 0.07 0.04 80 1018.4
20260508145003 49 255 2.0 3.0 0.00 0.07 0.04 78 1018.4
20260508141003 46 129 1.0 3.0 0.00 0.07 0.04 92 1018.2
20260508140003 45 242 0.0 3.0 0.00 0.07 0.04 92 1018.1
20260508135004 44 326 1.0 2.0 0.00 0.07 0.04 93 1018.3
20260508134003 43 135 1.0 3.0 0.00 0.07 0.04 94 1018.4
20260508132003 43 217 1.0 3.0 0.00 0.07 0.04 95 1018.4
20260508131003 42 195 1.0 3.0 0.00 0.07 0.04 96 1018.4
20260508130003 42 248 1.0 3.0 0.01 0.07 0.04 97 1018.5
20260508124004 42 348 0.0 0.0 0.02 0.07 0.04 98 1018.4
20260508123004 42 348 0.0 1.0 0.02 0.07 0.04 98 1018.5
20260508122005 42 353 0.0 3.0 0.03 0.07 0.04 98 1018.5
20260508121005 41 260 0.0 0.0 0.03 0.07 0.04 98 1018.4
20260508120005 41 260 1.0 2.0 0.02 0.06 0.03 98 1018.3
20260508115006 41 260 0.0 1.0 0.02 0.06 0.03 97 1018.2
20260508114006 41 260 1.0 3.0 0.01 0.05 0.02 98 1018.2
20260508113006 42 224 0.0 2.0 0.01 0.05 0.02 98 1018.2
20260508112006 42 245 0.0 3.0 0.00 0.04 0.01 98 1018.0
20260508111005 41 261 0.0 2.0 0.00 0.04 0.01 98 1017.8
20260508105006 41 229 0.0 0.0 0.00 0.04 0.01 98 1017.4
20260508104006 41 229 0.0 0.0 0.00 0.04 0.01 98 1017.1
20260508103006 41 229 0.0 0.0 0.00 0.04 0.01 98 1016.9
20260508101006 40 229 1.0 2.0 0.00 0.04 0.01 98 1016.8
20260508100006 40 229 0.0 0.0 0.00 0.04 0.01 98 1016.8
20260508095005 40 229 0.0 0.0 0.01 0.04 0.01 98 1016.8
20260508094006 40 229 0.0 0.0 0.01 0.04 0.01 98 1016.8
20260508093006 39 229 0.0 0.0 0.01 0.04 0.01 97 1016.9
20260508092005 39 229 0.0 0.0 0.01 0.04 0.01 98 1017.0
20260508091006 39 229 0.0 0.0 0.01 0.04 0.01 98 1017.2
20260508090005 38 229 0.0 0.0 0.01 0.04 0.01 97 1017.2
20260508085006 38 229 0.0 0.0 0.00 0.03 0.00 97 1017.2
20260508084006 38 229 0.0 0.0 0.00 0.03 0.00 97 1017.3
20260508083006 38 229 0.0 0.0 0.00 0.03 0.00 97 1017.2
20260508081007 38 229 0.0 0.0 0.00 0.03 0.00 97 1017.2
20260508080006 38 229 0.0 0.0 0.00 0.03 0.00 97 1017.2
20260508075006 38 229 0.0 0.0 0.00 0.03 0.00 96 1017.1
20260508074006 38 229 0.0 0.0 0.00 0.03 0.00 96 1017.1
20260508072007 38 229 0.0 0.0 0.00 0.03 0.00 96 1017.3
20260508071006 38 229 0.0 0.0 0.00 0.03 0.00 96 1017.3
20260508070006 38 229 0.0 0.0 0.00 0.03 0.00 96 1017.3
20260508065006 39 229 0.0 0.0 0.00 0.03 0.00 95 1017.2
20260508063006 39 229 0.0 0.0 0.00 0.03 0.00 95 1017.3
20260508062005 39 229 0.0 0.0 0.00 0.03 0.00 95 1017.4